Regional Weather Roundup
Issued by NWS

Home | Current Version | Previous Version | Graphics & Text | Print | Product List | Glossary On
Versions: 1 2 3 4 5 6 7 8 9 10 11 12 13 14 15 16 17 18 19 20 21 22 23 24 25 26 27 28 29 30 31 32 33 34 35 36 37 38 39 40 41 42 43 44 45 46 47 48 49 50
000
ASUS45 KCYS 280610
RWRWY

WYOMING REGIONAL WEATHER ROUNDUP
NATIONAL WEATHER SERVICE CHEYENNE WY
1200 AM MDT THU AUG 28 2014

NOTE:  "FAIR" INDICATES FEW OR NO CLOUDS BELOW 12,000 FEET
WITH NO SIGNIFICANT WEATHER AND/OR OBSTRUCTIONS TO VISIBILITY.

WYZ001-280700-
YELLOWSTONE NATIONAL PARK

CITY           SKY/WX    TMP DP  RH WIND       PRES   REMARKS
LK YELLOWSTONE   N/A     44  39  82 CALM      30.37S
6HR MIN TEMP:  44; 6HR MAX TEMP:  67;

W YELLOWSTONE  NOT AVBL

$$
WYZ002>013-054>058-071-098>099-280700-
NORTHERN WYOMING

CITY           SKY/WX    TMP DP  RH WIND       PRES   REMARKS
JACKSON        CLEAR     50  43  76 N5        30.27S
CODY           CLEAR     61  48  63 S5        30.15S
GREYBULL       CLEAR     61  51  70 SE5       30.09R
6HR MIN TEMP:  61; 6HR MAX TEMP:  77;

WORLAND        PTCLDY    60  54  80 S7        30.09F
6HR MIN TEMP:  57; 6HR MAX TEMP:  72;

SHERIDAN       PTCLDY    55  50  83 W3        30.06S
6HR MIN TEMP:  55; 6HR MAX TEMP:  80;

BUFFALO        PTCLDY    61  52  72 SW6       30.13F
6HR MIN TEMP:  60; 6HR MAX TEMP:  74; 6HR PCP:  0.15;

GILLETTE       MOCLDY    60  55  83 W9        30.09F
6HR MIN TEMP:  59; 6HR MAX TEMP:  61; 6HR PCP:  0.11;

HULETT         MOCLDY    61  55  82 MISG      30.10
NEWCASTLE      FAIR      59  59 100 MISG      30.10

$$
WYZ014>020-022>026-101>103-280700-
CENTRAL WYOMING

CITY           SKY/WX    TMP DP  RH WIND       PRES   REMARKS
BIG PINEY      PTCLDY    47  46  97 E3        30.32S
6HR MIN TEMP:  47; 6HR MAX TEMP:  56;

PINEDALE       PTCLDY    45  45 100 CALM      30.32F FOG
DUBOIS         FAIR      55  37  50 W16       30.29S
LANDER         CLOUDY    57  52  83 CALM      30.19R
6HR MIN TEMP:  56; 6HR MAX TEMP:  62;

RIVERTON       CLOUDY    57  52  83 CALM      30.20R
6HR MIN TEMP:  56; 6HR MAX TEMP:  61;

CASPER         CLOUDY    56  53  90 CALM      30.17S
6HR MIN TEMP:  55; 6HR MAX TEMP:  66;

DOUGLAS        CLOUDY    58  56  93 NW5       30.15S
6HR MIN TEMP:  57; 6HR MAX TEMP:  64; 6HR PCP: TRACE;


$$
WYZ021-027>030-104>119-280700-
SOUTHERN WYOMING

CITY           SKY/WX    TMP DP  RH WIND       PRES   REMARKS
EVANSTON       CLEAR     48  46  93 SW10      30.35S
6HR MIN TEMP:  47; 6HR MAX TEMP:  56; 6HR PCP:  0.20;

KEMMERER       PTCLDY    50  45  81 NW9       30.34F
FORT BRIDGER   MOCLDY    54  48  82 W15       30.35S
ROCK SPRINGS   CLOUDY    49  46  90 SW9       30.30S
6HR MIN TEMP:  49; 6HR MAX TEMP:  52; 6HR PCP: TRACE;

DIXON          CLOUDY    54  51  90 W5        30.31S
RAWLINS        CLOUDY    51  48  89 SW10      30.27S
6HR MIN TEMP:  51; 6HR MAX TEMP:  59; 6HR PCP: TRACE;

SARATOGA       CLOUDY    50  46  87 SW10      30.29F
LARAMIE        MOCLDY    47  43  86 SE3       30.27R
6HR MIN TEMP:  46; 6HR MAX TEMP:  61;

CHEYENNE       MOCLDY    54  46  74 W10       30.20S
6HR MIN TEMP:  53; 6HR MAX TEMP:  61;

TORRINGTON     MOCLDY    61  59  93 MISG      30.09S
6HR MIN TEMP:  60; 6HR MAX TEMP:  70;

PINE BLUFFS    FAIR      55  54  94 E3        30.18R

$$



USA.gov is the U.S. government's official web portal to all federal, state and local government web resources and services.